Dewpoint
54 47 44 37 25 21 17 16 18 16 34 45 45 45 44 45 43 38 57 61 67 69 71 71 71 70 69 68 70 70 70 70 69 70 70 70 69 69 69 69 68 67 66 67 66 65 65 65 63
40 37 38 33 22 15 14 18 16 38 46 48 47 46 44 45 55 59 60 65 68 70 71 71 70 70 69 68 70 71 70 70 70 70 70 69 69 69 69 68 68 67 66 66 66 66 66 64 61
39 39 33 26 23 17 17 27 32 42 47 46 47 48 47 48 57 58 62 65 69 70 70 70 70 69 69 68 70 71 71 70 70 70 70 69 69 68 68 68 68 67 66 66 66 66 65 62 61
35 36 33 26 25 25 22 22 25 30 43 50 50 48 50 51 55 59 63 65 67 69 70 70 69 69 68 68 70 71 71 70 70 70 70 69 69 68 68 68 68 67 66 65 64 64 62 61 62
37 33 28 24 24 24 24 23 23 34 46 49 51 53 52 55 58 61 62 63 65 68 69 69 69 69 68 69 70 70 70 69 69 69 69 69 69 68 68 68 68 68 67 66 65 64 63 63 62
33 29 25 23 23 24 24 21 23 29 49 52 54 54 53 57 59 60 60 62 65 67 69 69 69 69 69 69 69 69 69 69 69 68 69 69 68 68 68 68 67 68 67 66 65 64 64 63 63
29 24 22 22 21 22 22 21 23 35 47 49 54 53 53 55 58 59 59 63 64 67 68 69 69 69 69 69 68 68 68 68 68 68 68 68 68 68 68 67 67 67 67 66 65 65 64 64 64
25 23 20 21 20 20 22 22 26 30 35 53 55 52 52 55 57 60 62 63 63 65 67 68 69 69 69 68 67 67 67 67 67 68 68 67 67 67 67 66 66 66 66 66 66 65 64 64 63
26 22 20 21 21 22 24 22 23 36 42 49 51 54 54 56 62 62 63 62 62 62 65 67 68 68 67 67 66 66 67 67 67 67 67 66 66 66 66 65 65 65 65 65 65 64 64 63 63
24 22 21 23 24 22 23 23 22 32 45 52 54 55 54 59 62 61 61 61 61 60 62 65 66 67 66 65 66 66 67 67 67 67 66 65 65 64 64 64 63 64 64 64 64 64 64 64 63
26 24 24 24 25 22 21 22 24 23 33 49 53 54 54 58 61 62 62 62 61 61 62 63 65 66 65 64 65 66 66 66 66 66 66 65 64 63 63 62 62 63 64 64 64 63 63 63 63
24 25 24 24 24 23 22 23 23 23 23 38 56 56 55 58 59 63 64 64 64 63 62 64 64 65 64 65 65 65 65 65 65 65 65 64 63 63 63 62 62 63 63 62 62 61 61 61 62
25 25 26 26 24 23 23 22 22 22 22 31 56 57 56 57 58 60 64 65 65 64 64 64 64 64 65 64 64 65 65 65 65 65 65 65 63 64 64 63 62 62 61 61 60 62 62 62 64
26 28 27 27 26 24 22 22 23 22 23 40 55 56 57 57 58 59 61 64 65 66 66 65 65 65 65 65 63 64 64 64 65 64 65 66 66 65 65 64 63 62 63 63 63 64 64 63 62
29 27 27 26 26 24 23 21 21 23 24 23 49 55 56 58 59 59 60 62 64 65 66 66 66 66 66 66 65 64 65 65 65 66 66 67 67 66 65 65 65 64 65 65 65 63 62 51 50
27 27 24 25 25 25 23 21 21 22 23 23 24 50 54 55 57 59 59 60 63 64 65 66 67 66 66 67 66 66 66 66 66 66 67 67 67 66 64 64 64 64 65 64 59 54 51 50 48
27 23 23 23 24 24 23 21 21 22 22 21 22 23 46 51 53 56 58 59 61 63 64 66 67 67 66 67 67 67 67 66 66 66 66 66 66 65 64 64 64 64 63 54 52 51 50 48 42
22 22 21 21 22 21 20 20 22 21 21 21 21 22 23 35 48 49 51 56 59 62 64 65 66 67 67 67 67 66 66 66 66 66 66 66 65 65 64 64 63 60 55 53 51 47 45 42 37
24 23 21 20 20 19 19 20 20 20 20 20 22 22 23 24 31 35 35 50 57 60 63 64 64 67 67 66 65 65 64 65 65 66 66 65 65 65 64 63 56 55 52 50 46 41 38 36 38
26 24 21 21 21 19 18 18 18 20 20 21 21 23 23 24 24 27 30 38 56 59 62 64 64 66 66 66 66 65 64 65 65 66 66 66 65 65 62 57 54 53 49 45 42 39 38 38 40
23 22 21 21 21 20 19 18 19 20 20 20 22 23 24 23 24 25 27 34 54 58 62 63 64 64 65 65 65 65 65 65 64 65 64 64 63 62 58 52 53 51 47 42 39 36 34 34 38
19 21 21 19 18 15 17 14 16 18 19 19 19 21 24 24 25 25 26 31 54 59 62 63 64 64 64 64 64 64 63 63 64 64 63 61 57 55 53 50 52 48 45 40 39 39 37 35 34
18 20 19 19 18 17 16 15 15 17 18 19 20 20 19 22 24 25 26 27 52 59 62 63 64 64 64 64 64 64 63 63 63 62 60 58 52 51 51 47 50 45 42 41 40 40 38 39 38
27 25 18 18 16 14 17 15 14 14 15 17 19 20 20 20 21 23 25 27 41 60 62 63 64 64 65 64 64 64 63 63 61 60 57 54 51 50 48 45 46 43 41 41 40 40 41 41 40
26 24 20 18 20 13 15 14 14 17 17 17 16 18 21 20 20 21 22 25 35 57 62 63 63 64 65 64 64 64 63 62 60 58 55 51 49 48 46 44 43 41 41 42 42 42 41 41 40
23 24 23 23 22 20 20 19 16 16 21 23 24 19 20 21 21 21 22 23 32 52 63 63 63 64 65 64 64 64 63 60 59 56 53 51 49 48 47 43 42 42 43 42 42 41 41 43 43
26 24 25 22 23 24 24 26 27 26 26 24 24 26 22 20 22 23 24 25 29 47 62 63 63 64 65 64 64 64 61 59 57 54 52 50 50 48 46 43 43 43 42 42 41 41 42 41 42
29 29 26 24 20 20 24 30 28 26 26 26 26 25 27 30 31 31 31 31 30 44 59 63 64 64 65 65 64 62 59 57 55 52 51 50 49 46 45 44 42 42 42 42 41 41 42 41 40
30 28 28 27 26 27 25 24 28 27 28 28 28 27 26 30 30 32 33 32 34 49 58 63 64 64 65 64 63 62 59 56 54 52 51 50 48 46 44 43 42 42 41 41 40 40 40 39 40
29 26 33 29 29 33 33 30 33 32 32 31 31 32 33 32 32 35 35 34 48 56 60 63 64 64 64 64 63 61 60 55 53 52 51 50 46 45 43 42 42 41 41 40 40 39 40 39 39
Wind_Speed
8 3 1 2 1 4 4 6 12 7 3 5 16 11 12 8 6 3 1 15 23 22 20 20 24 24 23 21 19 19 19 19 17 15 15 15 14 14 14 14 14 13 12 12 11 11 10 9 10
5 3 4 2 3 0 7 5 10 16 12 22 19 17 10 5 5 11 16 16 23 22 20 20 24 24 23 22 20 18 19 19 17 15 14 14 13 13 13 13 12 12 12 11 10 9 8 8 9
5 2 1 1 4 4 3 5 3 23 22 13 10 11 7 8 10 15 15 21 19 19 19 20 24 24 23 21 20 19 18 18 17 15 14 13 13 13 13 12 12 11 10 10 9 8 7 6 8
4 4 3 1 9 10 7 18 14 17 12 8 20 13 6 1 18 14 25 24 19 17 17 23 24 23 23 22 20 19 19 18 17 15 13 11 11 11 10 10 10 10 9 8 7 6 4 4 6
4 3 2 3 10 8 18 23 18 5 7 13 10 7 6 4 21 30 28 23 23 17 17 20 23 22 22 22 22 20 19 19 19 16 15 12 9 8 9 9 8 9 9 7 6 4 2 3 5
2 1 1 6 9 14 13 12 12 5 13 13 13 11 4 19 29 23 24 21 19 22 18 17 20 20 20 20 22 21 20 20 19 18 15 14 13 10 8 7 7 8 6 5 4 3 1 2 5
2 0 3 7 13 13 11 10 7 14 11 7 15 7 7 16 21 23 21 18 17 18 19 16 16 17 19 20 21 22 21 20 19 18 16 14 13 11 10 8 7 6 6 5 4 3 2 3 5
2 1 4 3 7 7 9 5 6 8 4 17 16 9 13 19 23 20 21 19 18 17 18 17 15 15 15 17 20 21 20 21 21 18 16 15 13 12 10 9 8 7 6 6 5 4 3 4 5
3 2 5 4 4 16 11 8 6 7 13 2 1 15 22 28 27 25 21 15 15 15 16 18 18 16 17 16 18 19 19 19 19 18 17 14 11 11 10 10 10 10 8 7 7 5 4 6 8
4 4 6 7 5 11 9 10 9 6 9 6 7 13 33 30 31 31 27 26 22 21 18 18 19 19 18 15 15 16 15 14 13 14 14 13 12 11 11 11 12 11 9 9 8 7 6 7 7
5 16 16 25 15 10 5 10 9 3 4 9 17 27 28 29 27 27 25 31 31 24 20 17 18 18 19 16 15 13 13 13 13 13 13 13 11 10 11 10 10 10 10 8 9 7 6 7 8
7 14 11 14 9 5 5 4 13 3 4 4 24 32 25 24 25 25 23 22 23 24 23 21 19 20 18 15 16 15 14 14 14 15 14 13 12 13 13 13 12 11 9 9 8 8 9 7 8
14 14 10 15 16 8 4 8 7 16 12 4 19 26 28 26 25 22 23 22 21 23 21 25 23 21 20 19 16 16 16 15 15 16 15 14 15 15 14 14 12 10 9 10 9 9 8 7 5
10 16 20 10 18 9 6 7 5 11 11 7 24 27 27 30 31 24 23 26 28 25 26 26 26 24 22 19 20 18 16 16 17 16 15 18 15 13 14 13 14 12 10 10 10 8 5 1 3
7 16 13 14 11 9 5 12 14 17 14 13 20 25 28 30 27 31 33 30 31 31 31 33 31 28 26 24 21 19 18 17 17 16 18 18 17 15 14 14 13 13 12 10 8 5 3 6 9
6 3 10 8 5 8 4 22 25 23 13 21 18 24 28 29 33 34 32 33 32 27 30 30 26 31 30 27 23 20 19 18 18 16 17 17 16 17 16 13 13 12 11 8 7 8 8 7 6
2 10 10 16 9 8 7 16 21 24 15 24 22 20 28 31 31 32 32 34 31 34 32 31 31 32 30 24 23 21 19 18 17 16 17 17 16 17 16 15 13 12 10 12 12 7 6 4 5
14 12 13 22 5 11 24 29 25 23 17 26 29 26 21 30 37 35 31 35 31 33 34 34 30 29 27 20 19 17 18 18 16 17 15 17 16 18 16 14 13 11 14 13 9 10 9 5 3
11 12 20 15 9 15 22 25 22 27 18 22 28 29 23 20 30 29 28 33 36 31 29 32 32 29 27 24 26 24 26 20 16 15 17 19 18 18 18 16 15 15 17 14 13 9 9 7 3
16 23 34 24 16 17 27 31 26 24 25 19 23 26 25 18 20 22 29 25 33 35 33 30 32 30 30 28 25 18 19 11 15 15 19 20 20 19 19 18 16 18 16 14 11 10 6 3 5
22 27 29 25 16 23 23 32 27 21 14 21 18 24 25 25 27 23 21 22 33 32 31 33 34 34 32 27 21 13 13 10 14 19 20 18 19 20 20 20 20 19 17 17 12 12 9 8 4
26 24 27 25 18 23 8 32 30 19 21 19 23 17 22 24 22 24 25 19 28 36 34 35 33 34 32 29 28 29 32 27 20 22 16 19 19 19 20 21 21 20 17 18 13 11 10 9 9
23 23 24 25 22 21 21 13 40 9 17 19 18 23 22 24 24 27 28 27 30 33 35 36 32 31 32 33 32 30 29 23 16 17 23 21 16 17 20 21 21 21 18 19 19 14 12 7 7
16 19 21 18 17 22 35 17 44 31 26 21 17 20 22 25 22 24 25 26 23 29 31 31 33 34 32 34 33 34 32 27 24 23 24 21 18 15 17 19 21 21 21 20 18 15 14 11 9
8 13 13 14 22 33 24 17 37 8 14 26 30 28 25 25 24 25 25 22 22 28 33 33 34 35 32 34 33 34 32 31 31 29 26 24 21 19 19 19 20 20 20 20 18 17 14 12 10
18 10 11 19 15 25 24 21 35 30 17 12 21 27 26 26 27 27 27 28 24 29 33 36 37 34 33 35 33 31 28 25 25 27 25 25 24 22 18 19 20 21 21 20 18 15 12 11 11
1 18 21 21 23 21 19 17 23 39 40 36 33 24 27 30 23 24 26 29 24 28 35 40 38 35 35 37 31 29 28 28 26 26 26 25 20 20 21 21 20 20 20 20 19 16 14 12 9
12 7 11 7 21 31 21 19 24 32 18 22 35 35 26 21 25 26 27 27 27 29 34 35 36 40 40 36 31 26 28 27 25 26 30 30 27 26 23 22 21 19 18 18 18 14 11 14 9
10 4 5 10 8 7 16 14 22 39 30 33 32 33 36 20 25 26 33 29 23 23 25 31 31 32 32 33 28 29 27 26 25 27 28 28 27 28 28 24 21 20 19 17 16 15 13 14 11
21 23 6 9 8 8 9 17 22 30 31 25 25 24 24 25 27 25 33 31 15 24 24 29 29 31 31 30 28 26 24 23 26 26 26 26 29 28 28 26 23 20 17 16 17 16 14 15 12
Wind_Direction
290 237 139 43 120 58 266 252 247 253 295 209 142 140 156 113 155 182 16 153 133 146 156 161 147 141 142 142 140 136 131 128 127 121 116 113 112 111 113 110 108 108 108 106 103 99 90 71 62
292 41 49 76 96 249 288 236 242 123 141 111 98 104 78 86 72 127 126 147 147 147 154 160 147 144 144 145 144 139 134 134 133 127 122 118 119 119 118 115 113 113 114 110 103 94 76 50 40
305 66 44 43 153 197 333 344 156 145 160 138 117 99 106 120 121 146 144 139 146 146 154 155 148 147 147 149 145 141 139 137 134 130 126 128 130 129 126 125 122 119 116 112 106 94 76 47 24
2 14 28 307 278 273 261 293 265 146 132 101 117 77 64 83 157 152 140 141 145 149 157 148 151 150 150 148 146 144 142 139 135 132 133 137 135 133 133 136 136 128 121 116 111 104 89 52 18
34 63 302 261 268 257 274 264 266 133 97 127 119 118 103 43 124 136 143 148 148 151 143 150 153 154 154 152 148 148 146 144 143 144 145 143 142 141 141 137 138 137 134 132 126 119 90 30 357
338 107 295 291 292 286 287 259 203 136 145 133 100 109 102 134 133 146 147 151 151 146 143 151 157 159 158 153 150 151 152 150 151 152 156 155 155 156 152 149 142 145 143 142 142 135 52 337 336
176 81 253 277 286 310 309 260 96 119 156 122 128 96 121 143 142 147 146 143 143 142 143 151 158 161 159 157 156 156 156 156 157 158 162 165 166 165 163 161 160 166 172 166 174 187 228 301 328
144 80 286 265 315 311 338 320 104 74 80 136 146 143 165 163 148 134 137 137 142 148 151 154 155 157 158 160 161 161 162 162 163 165 168 169 171 173 176 181 184 191 191 194 213 229 254 289 304
140 253 269 276 315 317 324 345 10 53 113 76 211 152 159 151 133 133 135 137 146 155 162 159 158 161 161 161 166 165 167 169 168 170 174 174 175 182 187 195 197 200 206 214 226 241 264 290 301
168 207 244 223 273 295 331 349 322 85 105 49 90 122 149 147 149 153 160 165 168 171 176 169 163 166 162 165 166 167 169 173 179 179 180 180 182 191 198 208 209 208 212 228 237 243 258 276 283
225 239 254 273 274 282 315 327 334 100 138 188 159 149 159 159 160 164 169 172 176 174 171 178 170 168 168 169 168 171 171 176 185 191 189 188 192 201 209 217 217 219 216 226 241 252 251 259 276
284 272 268 281 282 278 284 298 317 329 118 200 165 161 160 166 170 171 173 173 168 175 177 175 177 173 177 166 173 176 176 183 189 199 201 196 202 208 215 217 213 209 210 220 241 243 243 245 264
274 277 307 305 310 280 278 260 265 291 306 172 167 163 170 174 179 181 176 173 172 179 181 181 177 181 181 174 180 180 185 188 196 202 204 198 210 213 209 214 207 216 205 212 231 246 257 240 231
288 304 292 299 299 291 288 287 305 264 291 117 163 175 177 182 185 183 178 181 181 183 185 182 183 185 184 182 184 187 189 192 197 205 206 203 210 217 206 199 209 207 204 218 226 199 191 267 347
295 309 314 282 269 283 349 291 259 254 265 262 184 185 187 193 189 189 193 189 187 192 184 187 186 183 188 189 187 188 190 192 199 207 208 207 210 212 197 181 182 189 173 179 188 158 135 92 65
300 287 291 279 289 272 244 265 273 273 256 256 236 196 195 201 197 200 199 198 194 188 188 190 190 189 189 190 187 189 191 192 199 203 204 206 203 194 177 170 175 175 164 159 138 137 109 99 90
311 254 262 283 256 271 242 264 265 265 242 255 257 241 203 209 210 206 205 202 196 192 190 190 190 193 193 189 183 185 189 193 201 203 203 198 192 186 176 176 178 166 156 140 133 126 143 129 89
227 233 239 244 270 264 273 270 266 271 269 256 252 249 244 212 210 211 205 205 199 195 191 190 188 191 189 184 178 177 178 193 199 202 200 189 184 180 175 174 169 158 144 146 150 120 78 99 68
252 262 257 259 263 266 264 275 275 279 275 266 253 248 247 231 215 212 210 197 201 199 192 190 188 186 179 178 180 189 191 188 192 188 183 179 183 176 175 167 162 156 153 156 142 121 119 60 37
229 243 258 274 274 271 279 282 274 266 273 264 263 251 236 227 236 226 228 184 196 195 194 192 191 184 186 186 188 192 190 183 180 176 177 179 182 174 173 166 161 154 145 145 144 145 132 106 35
232 234 251 255 274 272 278 280 277 270 253 268 262 256 250 233 231 231 223 198 193 194 192 191 191 189 189 187 178 155 146 148 170 184 182 184 180 177 171 165 158 158 153 152 146 148 150 145 61
240 237 250 255 261 259 214 270 274 269 268 260 265 256 253 244 241 242 235 213 193 195 194 195 190 188 188 182 183 183 184 187 197 185 173 173 177 177 168 165 160 161 152 147 146 146 143 137 151
247 260 259 261 258 266 258 249 266 259 263 263 258 261 264 256 253 247 236 227 198 195 194 196 190 189 185 182 186 185 188 191 175 171 167 172 174 173 168 162 158 155 151 148 147 142 139 134 147
308 301 265 271 255 252 257 248 272 260 259 268 269 262 261 273 267 253 246 236 212 195 191 190 188 191 189 184 186 188 185 179 167 172 171 173 166 168 165 162 155 152 149 151 152 146 141 142 144
278 286 277 263 254 253 256 248 260 258 259 255 259 266 268 273 273 267 266 256 221 197 190 188 190 192 187 188 190 189 187 179 177 173 171 166 165 169 172 161 158 156 153 151 147 144 145 152 157
257 250 239 248 253 260 257 245 250 266 270 283 310 281 271 275 276 272 262 264 228 206 190 188 192 191 187 188 191 190 185 180 180 174 170 171 172 169 171 162 159 157 152 151 148 146 145 146 145
15 242 261 273 267 265 255 272 261 266 269 271 276 293 279 272 286 291 285 274 251 214 195 191 191 191 188 189 185 183 179 178 180 175 167 166 162 161 167 162 159 157 154 151 148 148 145 145 147
249 243 275 264 268 262 251 239 247 264 282 265 264 264 276 288 303 305 293 277 262 225 202 192 188 186 189 188 184 177 180 180 175 170 175 172 166 163 164 162 160 158 154 149 144 141 143 139 142
332 269 229 253 248 257 267 260 246 259 267 267 266 267 271 286 299 301 303 281 254 222 196 188 185 187 187 187 176 179 182 178 175 178 175 175 168 163 163 161 158 154 150 146 141 136 146 143 133
262 276 344 246 264 259 256 271 286 299 305 304 306 304 299 297 303 310 313 283 227 190 183 181 183 184 187 184 178 181 172 171 173 179 180 175 174 168 162 156 152 149 147 145 139 140 146 137 131